Vernal, UT

11:09 PM MDT on September 28, 2016 (GMT -0600)
Vernal

Weather History for KVEL - October, 2012

Change the Weather History Date:

Saturday, October 20, 2012

  Actual Average Record
Temperature  
Mean Temperature 56 °F 47 °F  
Max Temperature 72 °F 59 °F 77 °F (2003)
Min Temperature 39 °F 34 °F 16 °F (1976)
Degree Days  
Heating Degree Days 9 18  
Month to date heating degree days 274 294  
Since 1 July heating degree days 344 476  
Cooling Degree Days 0 0  
Month to date cooling degree days 0 0  
Year to date cooling degree days 810 511  
Growing Degree Days 5 (Base 50)    
Moisture  
Dew Point 28 °F    
Average Humidity 42    
Maximum Humidity 65    
Minimum Humidity 18    
Precipitation  
Precipitation 0.00 in 0.04 in 0.80 in (1979)
Month to date precipitation 0.48 0.95  
Year to date precipitation 3.43 7.64  
Sea Level Pressure  
Sea Level Pressure 29.78 in    
Wind  
Wind Speed 4 mph (WNW)    
Max Wind Speed 10 mph    
Max Gust Speed 15 mph    
Visibility 10 miles    
Events      
T = Trace of Precipitation, MM = Missing Value Source: NWS Daily Summary

Daily Weather History Graph

Daily Weather History Graph

Search for Another Location

Airport or City:

Trip Planner

Search our weather history database for the weather conditions in past years. The results will help you decide how hot, cold, wet, or windy it might be!

Date:

Astronomy

Oct. 20, 2012 Rise Set
Actual Time 7:34 AM MDT 6:29 PM MDT
Civil Twilight 7:07 AM MDT 6:57 PM MDT
Nautical Twilight 6:35 AM MDT 7:29 PM MDT
Astronomical Twilight 6:03 AM MDT 8:00 PM MDT
Moon 1:14 PM MDT (10/20) 11:19 PM MDT (10/20)
Length of Visible Light 11h 50m
Length of Day
10h 54m
Waxing Crescent, 35% of the Moon is Illuminated
Oct 20
Waxing Crescent
Oct 21
First Quarter
Oct 29
Full
Nov 6
Last Quarter
Nov 13
New

Hourly Weather History & Observations

Time (MDT) Temp. Windchill Dew Point Humidity Pressure Visibility Wind Dir Wind Speed Gust Speed Precip Events Conditions
12:53 AM 41.0 °F 38.0 °F 28.0 °F 60% 29.93 in 10.0 mi WNW 4.6 mph - N/A   Clear
1:53 AM 42.1 °F 39.2 °F 28.0 °F 58% 29.90 in 10.0 mi West 4.6 mph - N/A   Clear
2:53 AM 43.0 °F 41.3 °F 28.0 °F 56% 29.88 in 10.0 mi West 3.5 mph - N/A   Clear
3:53 AM 43.0 °F 40.3 °F 28.0 °F 56% 29.86 in 10.0 mi West 4.6 mph - N/A   Clear
4:53 AM 41.0 °F 38.0 °F 30.0 °F 65% 29.87 in 10.0 mi West 4.6 mph - N/A   Clear
5:53 AM 42.1 °F 39.2 °F 28.9 °F 60% 29.87 in 10.0 mi West 4.6 mph - N/A   Clear
6:53 AM 39.9 °F 35.8 °F 28.9 °F 65% 29.89 in 10.0 mi West 5.8 mph - N/A   Clear
7:53 AM 39.0 °F 34.8 °F 28.0 °F 65% 29.91 in 10.0 mi West 5.8 mph - N/A   Clear
8:53 AM 46.9 °F - 30.0 °F 52% 29.89 in 10.0 mi Calm Calm - N/A   Clear
9:53 AM 54.0 °F - 27.0 °F 35% 29.86 in 10.0 mi Calm Calm - N/A   Clear
10:53 AM 55.9 °F - 27.0 °F 33% 29.84 in 10.0 mi Calm Calm - N/A   Clear
11:53 AM 60.1 °F - 26.1 °F 27% 29.81 in 10.0 mi Calm Calm - N/A   Clear
12:53 PM 63.0 °F - 27.0 °F 26% 29.76 in 10.0 mi ESE 4.6 mph - N/A   Clear
1:53 PM 66.0 °F - 25.0 °F 21% 29.71 in 10.0 mi ESE 4.6 mph - N/A   Clear
2:53 PM 69.1 °F - 25.0 °F 19% 29.67 in 10.0 mi East 3.5 mph - N/A   Clear
3:53 PM 71.1 °F - 26.1 °F 19% 29.64 in 10.0 mi Variable 4.6 mph - N/A   Clear
4:53 PM 71.1 °F - 27.0 °F 19% 29.63 in 10.0 mi North 5.8 mph - N/A   Clear
5:53 PM 66.0 °F - 30.9 °F 27% 29.63 in 10.0 mi North 6.9 mph - N/A   Clear
6:53 PM 57.9 °F - 32.0 °F 37% 29.66 in 10.0 mi West 4.6 mph - N/A   Partly Cloudy
7:53 PM 55.0 °F - 32.0 °F 42% 29.70 in 10.0 mi Calm Calm - N/A   Partly Cloudy
8:53 PM 52.0 °F - 30.0 °F 43% 29.69 in 10.0 mi West 5.8 mph - N/A   Clear
9:53 PM 46.9 °F - 30.9 °F 54% 29.69 in 10.0 mi Calm Calm - N/A   Clear
10:53 PM 45.0 °F 41.2 °F 30.0 °F 56% 29.69 in 10.0 mi West 6.9 mph - N/A   Clear
11:53 PM 46.9 °F - 28.9 °F 50% 29.68 in 10.0 mi West 3.5 mph - N/A   Scattered Clouds